Lafayette, IN

9:22 AM EDT on March 23, 2017 (GMT -0400)
Purdue Univ

Weather History for KLAF - June, 2014

Change the Weather History Date:

Monday, June 2, 2014

  Actual Average Record
Temperature  
Mean Temperature 74 °F 68 °F  
Max Temperature 78 °F 79 °F 90 °F (1988)
Min Temperature 69 °F 57 °F 40 °F (1966)
Degree Days  
Heating Degree Days 0 2  
Month to date heating degree days 0 4  
Since 1 June heating degree days 0 4  
Since 1 July heating degree days 6546 5654  
Cooling Degree Days 9 4  
Month to date cooling degree days 18 8  
Year to date cooling degree days 115 85  
Since 1 June cooling degree days 18 8  
Growing Degree Days 23 (Base 50)    
Moisture  
Dew Point 68 °F    
Average Humidity 82    
Maximum Humidity 97    
Minimum Humidity 67    
Precipitation  
Precipitation 0.31 in 0.15 in 2.22 in (1980)
Month to date precipitation 0.33 0.31  
Year to date precipitation 13.16 14.33  
Sea Level Pressure  
Sea Level Pressure 29.93 in    
Wind  
Wind Speed 10 mph (SSW)    
Max Wind Speed 23 mph    
Max Gust Speed 36 mph    
Visibility 9 miles    
Events Rain , Thunderstorm    
T = Trace of Precipitation, MM = Missing Value Source: NWS Daily Summary

Daily Weather History Graph

Daily Weather History Graph

Search for Another Location

Airport or City:

Trip Planner

Search our weather history database for the weather conditions in past years. The results will help you decide how hot, cold, wet, or windy it might be!

Date:

Astronomy

Jun. 02, 2014 Rise Set
Actual Time 6:19 AM EDT 9:12 PM EDT
Civil Twilight 5:46 AM EDT 9:45 PM EDT
Nautical Twilight 5:05 AM EDT 10:26 PM EDT
Astronomical Twilight 4:18 AM EDT 11:13 PM EDT
Moon 10:46 AM EDT (6/2) 12:06 AM EDT (6/2)
Length of Visible Light 15h 58m
Length of Day
14h 53m
Waxing Crescent, 21% of the Moon is Illuminated
Jun 2
Waxing Crescent
Jun 5
First Quarter
Jun 13
Full
Jun 19
Last Quarter
Jun 27
New

Hourly Weather History & Observations

Time (EDT) Temp. Dew Point Humidity Pressure Visibility Wind Dir Wind Speed Gust Speed Precip Events Conditions
12:54 AM 71.1 °F 64.9 °F 81% 30.00 in 10.0 mi South 10.4 mph - N/A   Clear
1:54 AM 70.0 °F 64.9 °F 84% 29.99 in 10.0 mi South 8.1 mph - N/A   Clear
2:54 AM 70.0 °F 64.9 °F 84% 29.99 in 10.0 mi South 8.1 mph - N/A   Partly Cloudy
3:54 AM 71.1 °F 66.0 °F 84% 29.97 in 10.0 mi SSW 5.8 mph - N/A   Mostly Cloudy
4:54 AM 71.1 °F 66.0 °F 84% 29.97 in 10.0 mi South 8.1 mph - N/A   Scattered Clouds
5:54 AM 72.0 °F 66.9 °F 84% 29.97 in 10.0 mi SSW 9.2 mph 17.3 mph N/A   Overcast
6:54 AM 72.0 °F 66.9 °F 84% 29.96 in 8.0 mi SSW 12.7 mph 20.7 mph N/A   Mostly Cloudy
7:54 AM 72.0 °F 68.0 °F 87% 29.97 in 8.0 mi South 10.4 mph - N/A   Overcast
8:54 AM 73.9 °F 66.9 °F 79% 29.97 in 9.0 mi South 12.7 mph 23.0 mph N/A   Mostly Cloudy
9:54 AM 75.0 °F 66.9 °F 76% 29.96 in 10.0 mi SSW 15.0 mph 29.9 mph N/A   Overcast
10:54 AM 77.0 °F 66.9 °F 71% 29.94 in 10.0 mi SSW 16.1 mph 28.8 mph N/A   Mostly Cloudy
11:54 AM 77.0 °F 66.0 °F 69% 29.94 in 10.0 mi SSW 18.4 mph 32.2 mph N/A   Overcast
2:44 PM 75.0 °F 68.0 °F 79% 29.94 in 7.0 mi SW 13.8 mph 23.0 mph 0.03 in Rain Light Rain
2:50 PM 73.4 °F 68.0 °F 83% 29.94 in 1.8 mi SW 9.2 mph 19.6 mph 0.09 in Rain Heavy Rain
2:54 PM 73.0 °F 69.1 °F 87% 29.92 in 1.2 mi SW 12.7 mph 24.2 mph 0.13 in Rain Heavy Rain
2:59 PM 73.0 °F 69.1 °F 87% 29.93 in 9.0 mi WSW 12.7 mph 24.2 mph 0.06 in Rain Rain
3:35 PM 73.0 °F 69.1 °F 87% 29.93 in 5.0 mi SW 8.1 mph 21.9 mph 0.11 in Rain , Thunderstorm Rain
3:54 PM 73.0 °F 70.0 °F 90% 29.91 in 7.0 mi SSW 9.2 mph 18.4 mph 0.12 in Thunderstorm Overcast
4:17 PM 73.0 °F 69.1 °F 87% 29.92 in 10.0 mi SSW 9.2 mph 18.4 mph N/A   Mostly Cloudy
4:38 PM 72.0 °F 68.0 °F 87% 29.92 in 9.0 mi SSW 8.1 mph 21.9 mph 0.00 in Rain , Thunderstorm Light Rain
4:49 PM 71.6 °F 69.8 °F 94% 29.92 in 2.5 mi SW 8.1 mph - 0.02 in Rain Light Rain
4:54 PM 71.1 °F 69.1 °F 93% 29.90 in 2.5 mi South 9.2 mph - 0.05 in Rain Rain
5:51 PM 71.6 °F 69.8 °F 94% 29.91 in 10.0 mi SSW 6.9 mph - 0.01 in Rain Light Rain
5:54 PM 71.1 °F 69.1 °F 93% 29.90 in 10.0 mi SSW 5.8 mph - 0.01 in   Scattered Clouds
6:54 PM 72.0 °F 69.1 °F 91% 29.88 in 10.0 mi SSW 8.1 mph 17.3 mph N/A   Partly Cloudy
7:54 PM 71.1 °F 69.1 °F 93% 29.88 in 10.0 mi SSW 6.9 mph - N/A   Clear
8:54 PM 72.0 °F 69.1 °F 91% 29.89 in 10.0 mi SSW 6.9 mph - N/A   Scattered Clouds
9:12 PM 71.1 °F 69.1 °F 93% 29.90 in 10.0 mi SSW 6.9 mph - N/A   Mostly Cloudy
9:43 PM 70.0 °F 68.0 °F 93% 29.90 in 10.0 mi SSW 8.1 mph - N/A   Scattered Clouds
9:54 PM 70.0 °F 68.0 °F 93% 29.90 in 10.0 mi WSW 6.9 mph - N/A   Partly Cloudy
10:54 PM 69.1 °F 66.9 °F 93% 29.92 in 10.0 mi Variable 5.8 mph - N/A   Partly Cloudy
11:17 PM 69.1 °F 66.9 °F 93% 29.93 in 10.0 mi SW 6.9 mph - N/A   Mostly Cloudy
11:25 PM 69.1 °F 66.9 °F 93% 29.93 in 10.0 mi SW 9.2 mph - N/A   Mostly Cloudy
11:52 PM 69.8 °F 66.2 °F 88% 29.94 in 10.0 mi SW 5.8 mph - N/A   Mostly Cloudy
11:54 PM 69.1 °F 66.9 °F 93% 29.93 in 10.0 mi Variable 6.9 mph - N/A   Mostly Cloudy